Weather in Ennis

Ireland     52°50′30″N   8°59′08″W
temp.,
°C
wind,
m/s
gust,
m/s
humid.,
%
clouds,
%
prec.,
mm/h
press.,
hPa
HPBL,
m
15 may, sat
sat1501:00+7ese51297100 4.1 998967
04:00+7ese499765 0.0 997429
07:00+7se259795 0.0 997256
10:00+9se229298 0.6 996277
13:00+12ssw348590 2.6 996815
16:00+13wsw358273 2.9 9951140
19:00+11sw3587100 4.6 995695
22:00+8e1192100 0.6 99511
16 may, sun
sun1601:00+8e2396100 0.6 99483
04:00+7ene129699 0.0 99470
07:00+7nne239596 0.0 995128
10:00+11nne237922 0.0 996597
13:00+13n337690 1.5 9971263
16:00+13nnw567654 1.4 9981172
19:00+12n368825 2.8 999564
22:00+8nnw4109487 1.4 1002333
17 may, mon
mon1701:00+6nnw399548 1.4 1004240
04:00+4nw22945 0.0 100518
07:00+6w11935 0.0 100636
10:00+10wnw468460 0.4 1007852
13:00+13wnw565958 0.6 10081632
16:00+12wnw675942 0.1 10091618
19:00+10wnw576961 0.3 10101215
22:00+6wsw379074 0.0 1011163
18 may, tue
tue1801:00+6wsw399048 0.1 1012279
04:00+5sw389529 0.1 1011247
07:00+7wsw310935 0.3 1012598
10:00+10w61184100 0.8 10131239
13:00+12w71158100 1.3 10131748
16:00+12w81264100 0.2 10141534
19:00+9w71391100 1.1 10141358
22:00+9w61293100 0.3 1016746
19 may, wed
wed1901:00+9w61293100 0.6 1017813
04:00+9w51094100 0.2 1017671
07:00+9w499591 0.6 1018574
10:00+10wsw5993100 0.6 1019704
13:00+13w447796 1.1 1018991
16:00+13w2366100 0.3 1016972
19:00+11sse3683100 0.6 1014389
22:00+7ese41096100 0.9 1011709